{"data":{"norad_id":60156,"epoch":"2026-09-21T21:12:48.068352Z","epoch_age_seconds":62646,"freshness":"FRESH","line1":"1 60156U 24120X   26264.88388968  .00000032  00000+0  12089-4 0  9993","line2":"2 60156  53.1592 125.1264 0001336  92.5440 267.5716 15.34387580126460","mean_motion":15.3438758,"eccentricity":0.0001336,"inclination_deg":53.1592,"raan_deg":125.1264,"arg_perigee_deg":92.544,"mean_anomaly_deg":267.5716,"bstar":1.2089e-5,"rev_number":12646,"period_min":93.84851772588,"perigee_km":461.82621412556,"apogee_km":463.65409650146,"semimajor_km":6840.8771553135,"source":"CELESTRAK","updated_at":"2026-09-22T09:00:49.181050Z"}}